Wind_Speed
40 40 40 40 40 41 41 39 37 35 34 33 32 30 28 26 24 23 21 20 20 19 18 17 16 14 13 13 12 11 10 10 9 9 9 9 9 9 9 9 9 10 10 11 11 11 11 11 12
40 41 41 41 42 41 39 38 37 36 35 35 33 31 29 27 26 24 22 21 21 20 19 18 17 16 15 14 13 12 12 11 11 10 10 10 10 10 10 10 11 11 12 12 12 13 13 13 14
40 41 41 42 42 40 38 37 37 37 36 36 34 33 30 28 27 25 24 22 22 21 21 20 18 17 17 16 15 14 13 13 12 12 11 11 11 12 12 12 13 13 13 14 14 14 15 15 15
40 41 42 42 41 39 38 37 37 36 36 36 35 33 32 30 28 27 25 24 24 23 22 21 20 19 18 17 15 15 14 14 14 13 13 13 13 14 14 14 14 14 15 15 15 16 16 17 17
39 39 41 42 41 39 38 37 37 36 36 36 35 33 32 30 29 28 26 25 25 24 23 21 21 20 19 18 17 16 16 16 15 15 15 15 15 15 15 15 15 16 16 16 17 17 17 18 18
38 38 39 40 39 38 38 37 36 36 35 35 35 33 31 30 29 28 26 25 25 24 24 22 21 21 20 19 18 17 17 17 17 17 17 17 17 17 17 17 17 18 18 18 19 19 19 20 20
36 37 38 39 38 37 36 36 36 35 35 34 34 33 31 29 29 28 26 26 26 25 24 23 22 22 21 19 18 18 18 18 18 18 18 19 19 19 19 19 19 20 20 21 21 21 21 21 22
33 34 35 38 37 37 36 35 35 34 34 34 33 32 30 28 29 28 27 26 26 26 25 24 23 22 21 21 20 19 19 19 19 19 20 20 20 20 21 21 21 22 22 22 22 22 23 23 23
30 31 33 36 37 36 35 35 33 33 32 32 32 31 29 28 28 28 27 27 26 26 26 24 24 22 22 22 21 20 20 20 20 21 21 21 21 21 22 22 23 23 23 23 23 24 24 24 25
28 30 31 33 35 35 34 34 32 31 30 31 31 31 29 28 28 28 27 26 25 26 26 25 24 24 22 22 22 20 21 21 22 22 22 22 22 22 23 23 23 24 24 24 24 24 25 25 25
25 28 29 30 32 32 32 33 31 30 29 29 29 29 29 28 28 28 27 26 25 25 25 26 25 24 23 23 22 22 22 22 23 23 23 23 23 24 24 24 24 23 24 24 24 24 24 25 26
24 26 26 27 28 29 30 31 31 29 29 28 29 29 29 28 29 28 27 26 26 25 24 25 25 24 23 22 23 22 23 22 23 23 24 24 24 24 24 25 24 24 24 25 25 25 26 26 27
22 24 24 24 25 26 27 28 29 28 28 28 28 29 28 28 29 28 28 27 26 25 25 25 25 25 24 24 24 23 24 23 22 23 24 24 25 25 24 24 25 25 25 26 26 26 27 27 28
21 22 22 22 22 23 25 25 26 27 27 27 27 27 28 28 28 28 27 27 27 26 25 26 27 26 25 25 25 25 24 24 24 24 24 25 26 25 25 26 26 26 26 27 27 28 28 28 28
19 20 21 21 20 21 23 24 25 25 26 26 26 26 27 27 27 27 27 27 27 27 25 24 26 26 25 25 26 26 26 26 26 25 25 26 26 26 27 27 28 28 28 28 29 29 30 30 30
16 17 19 20 19 20 22 23 24 24 24 24 25 26 27 27 26 26 27 28 28 27 26 25 25 26 27 27 26 26 27 27 27 27 27 27 27 28 28 29 29 29 29 30 30 30 31 31 31
14 15 17 18 17 18 20 21 22 22 23 23 24 25 26 26 26 25 25 27 28 27 27 26 26 27 28 28 28 28 28 29 29 29 28 28 29 29 30 30 31 31 32 32 32 32 32 32 32
11 12 14 16 16 16 17 18 20 20 21 22 23 24 25 25 25 25 25 26 26 27 27 27 27 28 29 29 30 30 29 30 30 31 30 30 29 29 30 31 32 32 32 33 33 33 34 34 34
9 10 12 13 14 14 15 16 18 19 20 22 23 23 23 24 25 25 25 24 25 25 26 27 28 28 29 30 30 31 31 31 31 32 32 31 30 31 32 33 33 33 33 34 35 35 35 35 35
7 9 10 11 12 14 14 16 17 19 20 21 22 23 23 24 24 24 25 25 25 26 27 28 29 29 29 31 31 32 32 32 32 32 32 32 31 31 32 33 33 34 33 33 34 35 36 36 36
6 8 10 11 12 13 14 15 17 18 20 21 22 22 23 24 24 24 25 25 26 27 28 29 30 31 31 32 33 34 33 33 33 34 34 34 34 33 33 33 34 34 34 35 34 34 35 35 36
5 7 9 11 12 12 14 16 17 18 19 21 22 22 23 23 24 25 25 26 27 28 29 30 31 32 33 33 33 34 34 34 35 35 35 35 35 34 33 34 35 34 34 35 35 35 35 36 37
5 7 9 11 12 13 14 16 17 19 20 21 22 23 23 24 25 26 27 28 29 29 30 31 32 33 34 34 34 34 35 36 36 35 35 36 36 36 35 35 35 35 36 37 37 36 36 37 37
6 7 9 11 13 14 15 16 17 18 19 20 22 23 25 26 27 27 28 29 30 31 31 32 33 34 34 35 35 35 36 36 36 36 36 36 37 37 37 36 36 36 37 37 37 37 37 38 38
7 8 9 11 13 14 15 17 17 18 19 20 21 23 25 26 27 28 29 30 31 31 32 32 33 34 35 35 36 36 37 36 36 37 37 37 37 38 38 38 38 37 37 37 36 36 36 37 37
9 9 10 11 12 13 15 16 17 18 19 20 22 23 25 26 27 28 29 30 31 31 31 32 32 33 33 34 35 36 37 37 37 37 38 38 38 38 38 38 38 38 38 37 36 37 37 37 37
10 11 11 13 13 14 15 16 17 18 19 20 22 24 25 26 27 28 29 30 31 32 32 33 33 33 33 33 34 35 36 36 37 38 38 38 39 39 38 38 38 38 39 39 39 39 38 38 39
12 13 14 15 15 16 16 16 17 18 20 21 23 24 25 26 27 28 30 31 32 32 33 33 34 35 35 34 35 35 36 37 37 37 37 38 38 39 39 40 40 40 40 40 41 40 40 40 41
14 15 16 17 17 18 18 17 18 20 21 22 24 25 26 27 28 29 30 31 32 33 34 35 35 36 35 35 35 36 37 37 37 37 38 38 38 39 40 40 41 41 41 42 42 43 43 43 43
16 17 18 18 19 19 20 19 20 21 22 23 24 25 26 27 28 28 29 31 32 33 34 35 36 36 36 36 36 36 37 38 38 38 39 39 39 40 40 41 41 41 42 42 43 44 44 45 45
Wind_Direction
240 238 237 237 237 237 237 236 235 234 234 235 235 235 236 238 239 240 240 237 237 236 237 238 239 242 244 245 248 252 255 259 264 269 272 274 277 279 281 282 286 288 288 288 290 290 290 290 291
236 235 235 235 236 237 236 236 235 234 234 234 234 234 234 235 236 237 238 236 236 234 235 236 238 241 244 246 248 250 253 257 262 266 269 273 276 279 281 282 284 286 287 287 288 288 288 288 288
233 233 233 234 235 236 236 235 235 233 233 233 233 233 233 233 234 234 236 235 234 233 234 236 237 241 244 246 249 250 253 257 260 263 267 271 275 277 279 281 283 284 285 286 286 286 286 286 287
231 231 232 233 234 234 234 234 235 234 233 233 233 233 233 233 233 233 234 234 233 232 233 236 237 239 243 246 248 252 254 256 258 262 266 271 274 276 278 280 281 282 284 285 286 286 286 287 287
230 230 231 231 232 232 232 233 234 234 234 233 232 231 231 231 232 232 233 233 231 231 232 234 236 238 241 245 248 251 254 256 258 261 265 269 273 275 277 278 280 281 282 284 285 285 285 286 286
228 229 228 228 229 229 230 231 231 232 233 232 231 230 230 230 230 230 231 230 229 230 231 233 235 237 240 244 248 252 254 256 259 262 264 267 270 273 275 276 278 280 281 282 283 283 284 284 284
227 226 226 226 226 227 228 228 228 230 231 231 231 229 229 229 228 229 229 229 229 230 230 231 234 235 239 243 248 251 254 257 260 263 265 267 269 271 273 275 277 279 281 282 283 283 284 284 284
224 225 224 224 224 224 226 227 226 228 229 230 230 229 228 230 228 228 228 228 228 228 228 228 233 235 239 242 246 251 254 258 262 264 266 268 268 270 272 274 276 278 280 280 281 282 283 283 284
221 222 222 223 222 222 224 226 227 227 228 228 229 228 226 228 227 228 229 229 230 228 229 230 233 236 236 241 245 251 254 258 262 264 266 267 268 270 272 275 277 279 280 280 281 282 283 284 285
219 220 220 222 222 222 223 225 226 226 227 227 227 227 226 227 227 229 228 228 230 230 228 230 231 235 236 241 245 250 254 257 261 264 265 266 268 271 273 275 276 278 279 281 282 284 284 285 285
218 218 218 221 223 222 224 224 224 225 226 227 227 225 225 226 226 227 228 228 230 232 231 230 232 236 238 240 245 250 256 257 260 263 265 266 269 271 273 275 275 277 279 281 283 284 284 284 284
215 213 214 218 220 222 223 223 223 224 226 227 226 224 224 225 226 225 228 228 229 231 231 231 234 236 240 243 248 254 259 262 261 263 264 266 269 270 271 273 274 276 278 280 282 282 283 284 285
210 209 212 216 219 220 221 222 223 225 224 225 225 222 221 224 224 225 227 228 228 231 232 232 234 238 243 245 249 255 259 263 266 266 267 268 270 272 272 273 275 277 279 280 281 283 284 284 285
206 208 211 214 218 220 221 221 221 222 223 224 225 224 223 225 224 225 227 227 229 232 235 235 235 239 244 247 250 255 260 264 267 270 269 270 270 272 272 274 275 277 279 280 282 282 284 285 286
203 207 212 214 215 217 220 219 220 220 222 224 224 223 222 222 223 224 225 226 231 234 237 236 240 242 246 251 252 255 261 263 265 269 269 270 270 270 271 273 274 275 277 279 281 282 284 285 285
198 204 211 211 214 215 218 220 221 220 220 221 221 220 221 221 223 226 227 228 231 235 239 242 243 245 248 253 256 257 261 264 266 267 268 269 270 269 270 272 273 275 277 278 281 282 283 284 284
200 206 209 209 213 216 218 220 221 218 219 220 220 222 225 225 225 226 228 231 233 237 242 245 246 248 253 256 259 262 264 265 266 268 268 269 269 268 269 272 274 274 276 278 279 281 283 283 284
206 211 209 210 215 218 221 222 220 219 219 220 221 225 228 230 230 231 233 234 237 240 243 246 249 251 256 259 261 264 266 266 268 268 269 268 268 269 271 272 274 275 276 278 278 279 282 283 284
210 214 211 214 219 223 224 224 220 220 222 223 225 228 230 232 235 238 242 244 244 246 247 250 253 256 257 260 264 267 269 270 271 271 271 270 270 270 271 272 274 276 277 278 278 279 281 282 282
218 219 219 223 224 225 225 224 223 223 225 227 230 233 236 238 240 242 245 247 247 249 250 252 255 258 261 263 265 268 271 272 273 273 273 271 271 273 274 275 276 277 278 279 279 279 281 281 281
218 222 225 229 226 226 227 226 225 227 229 231 233 235 236 238 240 242 247 250 251 252 254 256 258 259 262 266 268 271 273 274 274 274 275 274 273 275 276 277 278 278 278 279 279 280 281 282 282
225 224 227 228 228 232 233 232 229 228 230 234 236 237 238 240 242 244 248 251 254 256 257 258 260 261 264 267 270 272 273 274 274 273 273 273 273 274 275 277 278 277 277 278 279 280 281 283 284
238 233 234 234 234 236 239 239 235 233 232 235 237 238 240 242 245 247 250 254 257 259 260 261 262 264 266 267 270 272 272 273 273 272 272 273 273 274 275 277 277 277 279 279 280 281 283 285 286
253 248 246 244 242 241 241 242 240 240 237 238 240 241 243 245 248 250 252 255 257 260 261 262 263 265 267 268 268 270 272 272 272 272 272 273 274 275 275 276 278 278 278 280 282 284 285 286 288
268 262 258 256 252 249 248 246 245 244 243 243 243 245 248 250 251 252 253 255 257 260 262 263 265 266 267 268 269 270 271 272 272 272 273 274 274 275 275 276 278 279 279 280 282 284 285 287 288
274 272 269 268 265 260 254 250 248 247 246 247 248 249 250 253 255 255 255 256 258 261 263 264 266 268 268 269 270 270 270 271 273 272 272 273 275 276 277 278 280 280 281 282 283 284 285 287 289
279 276 274 273 270 268 263 260 255 252 250 250 251 252 254 255 257 258 257 257 259 261 263 265 267 269 270 271 271 271 271 271 273 273 273 273 275 276 277 279 280 281 283 284 284 285 285 286 287
283 281 277 274 274 272 270 267 265 260 256 255 255 255 256 256 258 259 260 260 262 263 265 267 268 270 272 273 273 273 273 273 273 274 275 275 276 276 277 279 281 282 283 284 285 285 286 286 287
286 283 280 277 275 274 272 270 267 262 259 258 258 259 259 259 261 262 263 264 265 266 267 269 270 272 273 274 275 275 276 276 276 276 277 277 278 277 277 279 280 281 283 283 284 285 285 286 287
287 284 281 279 277 275 273 272 267 264 263 261 260 260 260 261 262 263 264 265 267 268 269 271 272 273 274 276 277 277 277 277 277 278 278 279 280 279 278 279 280 281 282 283 284 285 285 286 287
Height
5777 5781 5785 5788 5791 5794 5798 5804 5809 5814 5818 5822 5826 5830 5834 5838 5841 5846 5846 5846 5848 5851 5853 5854 5856 5858 5859 5860 5861 5862 5863 5864 5865 5865 5866 5866 5867 5867 5868 5868 5868 5868 5869 5869 5869 5869 5869 5869 5869
5768 5772 5776 5779 5782 5786 5792 5798 5803 5808 5812 5816 5820 5824 5828 5832 5835 5838 5840 5842 5844 5847 5849 5851 5853 5855 5856 5858 5859 5860 5861 5862 5863 5863 5864 5864 5865 5865 5866 5866 5866 5866 5866 5866 5866 5866 5866 5866 5866
5758 5762 5767 5770 5774 5780 5786 5792 5796 5800 5805 5809 5814 5818 5822 5826 5830 5833 5836 5838 5840 5843 5845 5848 5850 5852 5853 5855 5856 5857 5858 5859 5860 5861 5861 5862 5863 5863 5863 5863 5863 5864 5864 5864 5864 5864 5863 5863 5863
5749 5753 5757 5762 5767 5774 5780 5785 5789 5794 5798 5802 5807 5812 5817 5821 5825 5828 5831 5833 5836 5838 5841 5844 5846 5848 5850 5851 5853 5854 5855 5856 5857 5858 5859 5859 5860 5860 5860 5860 5861 5861 5861 5861 5861 5861 5860 5860 5860
5740 5744 5748 5753 5760 5767 5773 5777 5782 5787 5792 5796 5802 5806 5811 5816 5819 5823 5826 5829 5831 5834 5837 5840 5843 5844 5846 5848 5849 5850 5852 5853 5854 5855 5855 5856 5857 5857 5857 5857 5857 5858 5858 5857 5857 5857 5857 5857 5857
5731 5735 5740 5746 5754 5760 5766 5771 5776 5781 5786 5790 5795 5801 5806 5810 5814 5818 5821 5824 5827 5830 5833 5836 5839 5840 5842 5844 5845 5846 5847 5849 5850 5851 5852 5852 5853 5853 5854 5854 5854 5854 5854 5854 5854 5854 5853 5853 5853
5725 5729 5734 5741 5748 5754 5760 5764 5770 5775 5780 5785 5790 5796 5800 5805 5809 5813 5816 5820 5823 5825 5829 5832 5834 5836 5838 5840 5841 5843 5844 5845 5846 5847 5848 5849 5849 5849 5850 5850 5850 5850 5850 5850 5850 5850 5849 5849 5849
5718 5725 5729 5735 5742 5748 5754 5759 5764 5769 5775 5780 5785 5790 5795 5801 5804 5808 5812 5815 5818 5821 5824 5827 5829 5831 5834 5836 5837 5838 5840 5841 5842 5843 5844 5844 5845 5845 5845 5846 5846 5846 5846 5846 5845 5845 5845 5844 5844
5714 5720 5724 5730 5737 5744 5749 5754 5760 5764 5770 5775 5780 5786 5791 5795 5799 5803 5807 5810 5813 5816 5819 5822 5824 5826 5829 5831 5832 5834 5836 5837 5838 5838 5839 5840 5840 5840 5841 5841 5841 5841 5841 5841 5841 5840 5840 5840 5839
5710 5716 5721 5727 5734 5740 5745 5751 5756 5760 5766 5771 5776 5782 5787 5791 5795 5798 5802 5806 5808 5811 5814 5818 5820 5821 5824 5826 5828 5829 5831 5832 5833 5833 5834 5835 5835 5835 5836 5836 5836 5836 5836 5836 5836 5835 5835 5835 5834
5708 5713 5719 5724 5730 5735 5741 5746 5751 5756 5762 5768 5773 5778 5782 5786 5790 5793 5797 5801 5804 5807 5809 5812 5815 5818 5820 5821 5823 5825 5826 5827 5827 5828 5829 5829 5830 5830 5831 5831 5831 5831 5831 5831 5830 5830 5830 5829 5828
5707 5711 5717 5722 5726 5732 5737 5742 5747 5752 5759 5764 5768 5773 5777 5782 5785 5789 5793 5796 5799 5802 5804 5807 5809 5812 5814 5816 5818 5820 5821 5822 5822 5823 5823 5824 5824 5825 5825 5825 5826 5826 5826 5825 5825 5824 5824 5823 5822
5706 5710 5715 5720 5724 5729 5734 5739 5744 5749 5754 5759 5764 5768 5773 5777 5781 5784 5788 5791 5794 5797 5800 5803 5805 5807 5809 5811 5813 5815 5816 5816 5817 5818 5818 5818 5819 5819 5819 5820 5820 5820 5820 5820 5819 5818 5818 5817 5816
5706 5710 5714 5719 5722 5727 5732 5736 5741 5746 5750 5755 5759 5764 5769 5773 5776 5780 5784 5787 5790 5793 5795 5798 5800 5802 5804 5806 5808 5809 5810 5811 5812 5813 5813 5813 5813 5813 5814 5814 5814 5814 5814 5814 5813 5812 5812 5811 5810
5706 5710 5714 5718 5722 5726 5730 5734 5738 5742 5747 5751 5755 5760 5765 5769 5772 5776 5779 5782 5785 5788 5791 5793 5796 5798 5799 5801 5803 5804 5805 5806 5806 5807 5807 5807 5807 5808 5808 5808 5808 5808 5808 5807 5806 5806 5805 5804 5803
5706 5710 5714 5717 5721 5725 5730 5733 5736 5740 5744 5748 5752 5756 5761 5765 5769 5772 5775 5778 5781 5784 5787 5789 5791 5793 5795 5796 5797 5799 5800 5800 5801 5801 5801 5801 5801 5802 5802 5802 5802 5802 5801 5800 5800 5799 5798 5797 5796
5707 5710 5714 5718 5721 5724 5728 5731 5734 5738 5742 5746 5750 5754 5758 5762 5765 5768 5772 5775 5777 5780 5782 5784 5786 5788 5790 5791 5792 5793 5794 5794 5795 5795 5795 5795 5795 5795 5795 5795 5795 5794 5794 5794 5793 5792 5791 5790 5789
5708 5711 5714 5717 5721 5724 5726 5730 5733 5736 5740 5744 5748 5752 5756 5759 5762 5765 5768 5771 5774 5776 5777 5779 5781 5783 5784 5785 5786 5787 5788 5788 5788 5788 5788 5788 5788 5788 5788 5788 5788 5787 5787 5786 5785 5785 5784 5782 5781
5710 5713 5715 5718 5721 5723 5726 5729 5732 5735 5739 5742 5746 5750 5753 5756 5758 5761 5764 5767 5769 5771 5772 5774 5775 5777 5778 5779 5780 5781 5781 5781 5781 5781 5781 5781 5781 5781 5781 5781 5780 5780 5779 5778 5777 5776 5775 5774 5773
5711 5713 5716 5718 5720 5723 5725 5728 5731 5733 5737 5740 5743 5747 5750 5752 5755 5758 5760 5762 5764 5766 5767 5769 5770 5771 5772 5773 5774 5774 5774 5774 5774 5774 5773 5773 5773 5773 5773 5773 5772 5772 5771 5770 5769 5768 5767 5766 5764
5712 5714 5716 5718 5720 5722 5724 5727 5730 5732 5734 5737 5740 5743 5746 5749 5751 5754 5756 5757 5759 5760 5762 5763 5764 5765 5766 5767 5767 5767 5767 5767 5767 5767 5766 5766 5766 5766 5766 5765 5764 5764 5763 5762 5761 5759 5758 5757 5756
5712 5714 5715 5717 5719 5720 5723 5725 5728 5730 5733 5735 5738 5740 5743 5745 5747 5749 5751 5752 5754 5755 5756 5757 5758 5759 5759 5760 5760 5760 5760 5760 5760 5759 5759 5759 5758 5758 5758 5757 5757 5755 5754 5753 5752 5751 5750 5749 5747
5713 5713 5715 5716 5717 5719 5721 5722 5726 5727 5730 5732 5734 5736 5738 5741 5742 5744 5746 5747 5748 5749 5750 5751 5751 5752 5752 5753 5753 5753 5753 5752 5752 5752 5751 5751 5750 5750 5749 5749 5748 5747 5746 5745 5744 5742 5741 5740 5738
5713 5714 5714 5715 5716 5718 5719 5720 5723 5724 5727 5729 5731 5732 5734 5736 5737 5739 5740 5741 5742 5743 5743 5744 5745 5745 5745 5746 5746 5745 5745 5744 5744 5744 5743 5743 5742 5742 5741 5740 5739 5738 5737 5736 5734 5733 5732 5730 5729
5713 5713 5714 5713 5714 5716 5716 5717 5720 5722 5723 5725 5727 5728 5729 5730 5732 5733 5734 5734 5735 5736 5736 5737 5738 5738 5738 5738 5737 5737 5737 5736 5735 5735 5735 5734 5734 5733 5732 5731 5730 5729 5728 5727 5725 5724 5723 5721 5719
5712 5712 5713 5713 5712 5714 5714 5715 5718 5718 5719 5720 5721 5722 5723 5724 5726 5727 5727 5728 5728 5729 5729 5730 5730 5730 5730 5730 5729 5729 5728 5728 5727 5726 5726 5725 5725 5724 5724 5723 5722 5720 5719 5718 5716 5715 5713 5712 5710
5710 5710 5711 5710 5710 5710 5711 5712 5714 5714 5715 5715 5716 5717 5718 5718 5719 5720 5720 5721 5722 5722 5722 5722 5722 5722 5722 5722 5721 5720 5720 5719 5718 5717 5717 5716 5716 5715 5714 5714 5712 5711 5710 5708 5707 5706 5704 5702 5700
5709 5708 5708 5708 5707 5707 5708 5708 5709 5709 5710 5710 5711 5711 5712 5713 5713 5713 5714 5714 5714 5714 5714 5714 5714 5714 5713 5713 5713 5712 5711 5710 5709 5708 5707 5707 5706 5706 5705 5704 5703 5702 5700 5699 5697 5696 5694 5693 5691
5707 5706 5704 5704 5704 5703 5703 5707 5705 5704 5704 5705 5705 5705 5706 5706 5707 5707 5707 5707 5707 5707 5707 5706 5706 5705 5705 5704 5703 5703 5702 5701 5700 5699 5698 5698 5697 5696 5695 5694 5693 5692 5690 5689 5687 5686 5684 5682 5680
5703 5702 5701 5701 5700 5699 5699 5703 5699 5699 5698 5699 5699 5699 5699 5699 5700 5700 5700 5700 5700 5699 5699 5698 5697 5697 5696 5695 5694 5694 5692 5692 5691 5690 5689 5688 5687 5686 5685 5684 5683 5682 5680 5678 5677 5675 5673 5671 5669